GFSGL_925_spd_336.txt.gz
Wind_Speed
13 11 10 10 10 10 9 7 5 5 4 4 5 3 2 3 4 6 7 9 9 11 13 16 16 18 21 17 17 20 21 28 30 15 20 28 31 31 27 25 22 21 19
14 13 13 12 11 11 10 8 6 5 4 4 5 5 3 1 3 5 7 9 9 13 14 17 20 20 18 17 19 24 30 26 40 26 20 24 28 28 28 27 25 22 19
15 15 14 12 12 12 11 9 7 6 5 5 5 6 5 2 3 5 7 7 7 11 15 16 19 22 20 19 21 24 27 29 26 32 23 22 26 27 28 27 25 23 24
16 16 16 14 13 12 10 10 9 7 6 5 5 6 7 5 4 6 7 9 9 10 13 17 19 23 25 22 22 26 28 31 28 27 27 21 23 25 26 29 25 21 21
17 17 17 14 13 11 11 11 10 9 7 5 6 6 7 8 6 7 7 10 12 13 12 17 19 20 22 25 25 25 30 33 28 26 22 19 22 27 25 21 27 24 20
16 17 15 14 14 13 12 12 12 11 8 5 6 7 8 9 8 9 8 11 13 15 18 17 21 20 20 17 17 22 29 36 31 24 17 23 25 23 25 30 32 26 8
17 16 16 15 15 13 11 12 12 11 8 6 8 8 9 10 8 10 11 10 13 16 19 21 20 22 21 20 17 19 23 30 31 38 36 32 29 36 34 33 27 19 10
12 14 15 15 14 13 12 12 12 11 10 7 8 10 9 10 9 10 14 13 12 14 18 21 23 25 24 23 23 22 23 26 26 29 31 32 31 37 34 31 29 16 19
10 11 12 12 11 10 10 10 10 10 10 8 8 9 10 10 9 12 17 17 15 14 17 20 22 23 24 23 22 24 25 25 24 25 24 25 27 24 34 30 30 28 12
7 7 8 9 10 10 9 9 9 10 10 8 7 10 11 11 10 10 18 19 18 18 20 18 19 22 24 24 23 24 26 27 25 24 21 18 23 25 29 32 33 30 15
5 4 5 6 7 7 8 9 10 9 8 8 8 9 10 10 9 11 14 18 21 21 25 24 22 21 23 24 22 23 23 20 22 23 22 21 24 28 32 34 29 29 18
7 6 5 5 5 5 5 6 7 7 7 8 9 9 9 10 11 13 15 15 18 21 24 26 25 23 22 23 22 22 20 18 19 22 24 26 28 30 32 33 27 27 21
11 9 6 5 4 4 4 5 6 6 7 6 8 9 8 9 12 15 17 18 16 17 18 22 22 23 23 22 21 23 24 20 22 26 28 29 30 30 31 32 26 25 20
15 13 10 6 4 2 1 2 4 6 7 8 8 7 9 7 11 13 14 17 20 18 17 17 20 22 24 24 23 22 21 23 26 29 30 29 28 28 30 33 29 25 21
13 12 11 10 8 5 2 2 5 6 7 7 10 8 9 9 7 4 4 8 11 15 16 16 17 19 21 21 21 22 23 24 26 28 30 30 31 30 32 34 31 27 20
11 10 10 8 9 9 8 7 4 4 8 10 9 9 8 8 8 8 4 4 5 7 11 17 20 23 26 27 27 27 27 28 29 30 31 33 35 35 34 35 34 33 30
10 8 7 7 7 7 8 9 11 9 7 4 5 10 12 11 9 8 10 10 10 8 12 17 21 25 28 29 30 32 33 34 33 34 35 35 36 35 37 37 35 31 26
9 7 7 7 7 6 6 7 9 10 11 10 7 7 8 10 11 11 8 11 11 14 17 19 22 24 27 29 30 32 32 30 33 34 35 34 36 37 37 37 38 34 30
7 8 7 6 6 7 7 7 7 9 10 11 11 11 9 7 8 10 11 16 19 20 21 21 22 23 25 26 29 30 30 32 33 34 35 35 36 37 34 34 36 36 35
6 6 6 5 4 6 7 7 7 8 9 9 10 10 11 11 8 10 12 17 20 22 22 19 20 20 23 26 27 26 28 31 32 33 35 37 39 39 35 36 38 39 39
7 6 7 6 5 5 6 6 7 8 9 10 10 9 10 12 12 12 13 16 20 23 24 23 23 24 23 23 24 27 29 31 32 34 35 37 39 40 40 40 38 38 36
7 7 6 5 6 7 7 7 8 9 10 11 12 11 10 11 12 14 15 16 18 19 20 22 23 25 24 24 25 25 27 29 32 34 35 35 38 39 40 40 38 37 35
7 8 7 5 5 6 8 9 10 10 11 12 12 12 12 12 12 13 15 16 17 18 18 18 20 22 24 24 24 26 27 30 33 33 33 34 37 37 40 41 40 37 36
7 8 9 9 9 9 9 11 12 11 13 15 15 14 14 15 14 15 16 16 17 18 19 21 21 21 21 21 23 25 26 27 29 31 32 33 36 36 37 39 41 41 38
7 8 8 10 11 11 12 12 13 14 16 19 19 15 15 17 20 19 18 17 19 20 20 20 21 23 22 21 22 23 25 25 27 30 31 34 35 36 38 39 39 39 37
9 9 9 9 10 12 13 14 15 16 17 18 19 20 21 22 23 23 21 21 23 23 22 22 22 22 22 23 23 21 22 23 25 27 30 33 35 35 36 38 39 37 37

GFSGL_925_spd_339.txt.gz
Wind_Speed
16 15 14 12 11 10 9 8 5 5 3 2 2 2 3 3 2 1 3 6 7 9 12 17 22 21 21 16 16 25 25 31 30 14 20 28 31 30 26 25 22 21 17
16 16 14 12 11 12 11 10 8 6 5 3 2 2 3 3 3 3 4 6 7 11 13 17 19 20 19 16 19 23 28 23 39 30 21 24 27 27 27 25 23 20 18
17 16 15 14 13 12 12 11 9 8 6 5 3 3 3 3 5 5 4 5 8 10 12 15 19 20 19 19 21 25 29 30 26 31 23 22 25 25 26 25 23 22 24
18 17 17 16 14 13 12 12 10 9 7 6 5 4 5 3 5 7 6 6 7 9 13 14 16 19 22 21 23 31 35 35 29 25 26 22 25 24 24 27 24 21 21
19 19 18 16 14 14 13 13 12 11 9 7 7 5 6 6 6 8 8 9 9 11 12 14 17 18 21 25 26 31 36 33 31 28 23 20 22 27 26 21 25 23 20
21 21 18 17 17 16 14 13 13 11 10 8 8 7 7 7 7 9 9 11 11 12 14 16 17 19 20 20 21 27 34 36 30 26 20 25 26 27 26 31 31 24 7
18 17 18 18 18 17 14 13 13 12 10 9 8 8 8 7 8 8 11 11 12 14 16 18 20 21 21 19 19 19 25 26 24 38 36 34 31 39 36 34 27 20 10
13 14 15 17 16 14 13 11 10 11 11 9 8 8 10 9 8 8 11 12 13 14 17 20 22 23 24 24 22 22 25 26 26 28 33 36 34 37 35 31 30 17 15
11 13 15 15 15 14 13 11 10 10 10 9 7 9 9 8 9 9 11 15 15 16 17 19 22 24 25 25 25 26 24 24 22 22 23 27 29 23 35 30 30 26 10
11 12 13 13 13 13 12 12 11 11 10 9 7 8 9 9 10 10 11 17 16 16 18 21 21 24 25 26 26 26 26 27 24 23 20 18 22 24 26 32 34 32 15
11 11 11 10 10 10 10 9 9 9 7 7 6 7 10 10 11 10 9 18 19 18 19 22 24 25 26 26 27 26 26 25 26 24 22 21 22 25 29 34 31 32 27
13 12 11 10 9 9 8 8 8 8 7 7 6 5 9 9 9 8 9 13 18 19 21 23 22 23 23 25 26 24 23 22 26 25 25 26 27 29 30 33 31 30 26
15 14 12 10 9 8 7 7 6 7 6 6 4 5 5 7 7 8 9 12 15 15 18 18 20 22 21 22 23 23 23 23 25 28 29 30 30 29 30 31 29 28 25
18 15 12 11 9 7 6 5 4 6 6 4 5 5 4 4 5 5 6 10 14 15 13 13 13 16 19 21 22 24 25 25 27 29 30 29 29 29 30 33 33 30 26
18 16 15 13 10 8 6 3 3 4 5 5 2 2 2 2 1 3 3 5 7 11 12 12 14 16 19 21 23 25 26 25 27 28 28 28 29 31 33 33 33 33 23
16 14 12 11 10 10 10 7 4 2 4 9 7 5 4 4 4 3 3 4 8 8 11 13 15 18 22 25 27 28 27 28 28 29 29 30 32 34 33 34 33 34 28
14 12 11 10 8 7 6 6 6 7 5 5 2 4 8 8 6 5 5 7 8 10 11 11 14 19 24 27 29 30 31 31 29 29 31 32 33 34 36 35 33 30 25
12 10 8 6 6 4 5 4 4 4 5 4 5 6 5 5 8 8 5 7 9 13 16 14 15 16 19 22 25 27 28 26 27 30 32 32 33 33 32 32 35 32 29
10 8 6 5 4 4 5 5 4 3 4 5 6 4 7 8 3 5 7 10 11 12 13 15 16 16 17 17 18 20 23 25 28 29 31 32 33 34 33 34 35 34 30
6 6 4 2 3 5 5 4 4 4 4 5 5 7 7 9 7 5 6 7 10 13 14 14 14 14 14 14 15 17 19 21 25 27 29 32 34 36 35 33 34 34 36
7 6 6 5 6 6 4 4 4 4 5 5 6 7 8 8 10 8 7 8 10 13 14 13 13 14 14 13 14 16 18 20 23 26 29 32 33 35 36 34 34 36 33
7 7 4 4 4 4 3 3 5 5 5 6 7 8 8 8 8 9 9 10 10 9 9 11 12 13 14 14 15 17 18 20 22 24 27 29 30 33 32 33 32 32 33
7 7 5 4 3 1 1 1 2 3 5 8 9 9 9 9 9 10 10 10 11 11 12 13 13 13 12 12 13 15 18 21 23 23 24 27 30 32 32 33 33 31 34
6 6 6 6 5 4 3 3 4 6 8 9 10 10 9 9 11 12 13 14 13 13 13 14 14 16 15 15 14 14 15 17 19 23 23 26 29 31 31 32 33 35 33
5 5 5 5 5 5 5 6 6 7 7 9 10 10 11 14 16 17 17 16 15 16 16 16 16 16 16 16 17 17 16 16 16 19 21 24 28 31 31 32 32 32 32
4 4 4 4 4 5 7 9 9 10 11 11 11 12 13 14 14 14 15 16 15 16 16 15 15 18 18 19 19 18 18 17 17 17 19 23 26 30 32 32 32 32 31

GFSGL_925_spd_342.txt.gz
Wind_Speed
19 16 15 14 13 13 11 9 8 8 8 7 6 6 5 5 5 3 4 4 5 9 13 11 10 16 21 19 15 16 22 24 27 15 19 25 28 28 27 26 22 20 17
19 17 16 14 14 13 12 11 10 8 8 7 6 6 6 6 6 6 5 6 6 8 12 14 16 19 18 17 23 19 18 22 38 27 21 21 25 25 25 24 21 19 19
19 18 17 16 16 14 14 13 12 10 9 8 7 7 7 6 7 6 6 6 7 8 12 13 19 19 18 17 24 27 25 30 24 28 22 21 23 23 24 23 22 22 21
19 19 18 18 17 16 15 14 13 12 10 8 8 8 8 6 7 8 6 7 8 9 11 12 15 19 19 19 24 26 27 29 27 25 22 19 24 22 23 26 24 20 20
19 19 20 20 18 16 16 15 14 13 11 9 8 8 9 8 8 9 8 7 7 9 12 12 15 15 17 19 25 29 30 30 30 29 22 19 20 25 25 21 24 22 18
21 22 19 19 18 17 16 15 14 13 11 10 8 8 9 10 10 12 11 10 9 11 12 15 15 15 18 19 20 26 34 36 29 27 20 23 23 24 26 29 30 20 6
18 19 19 19 18 18 16 15 14 13 12 11 10 8 8 11 11 11 12 12 12 12 14 16 18 19 19 20 18 23 32 34 36 40 31 28 30 38 35 33 27 22 10
16 17 18 20 19 18 17 15 14 14 13 11 10 9 8 11 12 11 12 14 14 14 15 16 20 21 23 23 23 26 27 30 28 27 25 35 33 39 36 29 29 19 10
16 17 19 20 20 20 19 17 15 14 13 12 10 8 9 11 12 14 12 16 16 15 15 17 19 23 23 24 26 27 26 28 27 26 24 26 32 27 36 30 29 25 8
15 17 18 18 18 18 16 15 14 13 12 12 10 9 10 9 11 13 13 15 19 19 17 17 19 22 26 26 26 27 28 29 26 23 20 18 23 25 29 31 33 31 15
15 16 16 16 16 15 14 14 13 13 12 11 10 9 10 11 11 13 13 16 20 21 21 20 21 22 23 27 29 29 29 25 26 23 21 21 23 26 30 34 33 34 30
18 18 17 15 14 14 14 13 12 12 10 10 9 8 9 10 10 12 11 12 17 21 23 22 22 25 25 27 29 28 27 23 25 25 25 26 28 30 31 33 34 32 29
19 17 15 14 14 13 13 11 11 10 11 9 8 7 7 6 7 11 11 10 12 15 19 19 21 24 26 27 26 27 26 24 25 29 30 32 32 30 29 31 31 30 28
21 18 15 14 12 11 10 9 9 10 10 7 5 3 2 5 5 7 9 11 12 15 15 14 13 17 22 23 25 26 26 25 27 32 33 31 29 27 29 31 32 32 28
21 18 15 13 11 10 9 7 8 8 8 6 3 2 3 4 4 3 5 7 9 9 12 11 12 16 18 21 22 23 25 25 27 29 29 30 29 30 31 32 32 33 25
21 16 14 14 13 11 10 8 5 4 6 8 6 4 3 3 3 4 4 3 6 9 11 13 15 17 21 23 24 25 26 27 28 29 29 29 31 32 31 32 31 30 27
19 17 15 12 9 9 8 8 8 6 6 6 2 4 6 4 5 6 6 6 5 6 9 8 12 14 17 20 23 26 28 30 30 30 31 30 30 29 29 30 29 28 26
16 14 11 10 8 8 7 5 5 3 4 4 4 3 5 4 5 6 4 5 5 9 10 10 7 9 10 12 16 20 22 22 23 27 29 30 31 30 29 29 31 29 26
13 11 10 9 8 8 7 6 5 4 3 2 1 2 6 5 4 2 5 5 6 5 6 6 7 7 7 7 8 11 15 18 21 24 27 31 32 32 31 31 30 32 27
12 11 10 9 8 7 7 6 5 4 3 1 2 4 5 6 5 5 2 3 5 6 6 6 6 6 6 6 6 8 10 13 17 20 23 26 28 31 31 31 31 29 32
12 11 12 9 6 5 5 5 4 3 2 1 1 3 5 5 4 5 5 3 4 4 5 6 7 7 7 7 8 9 11 14 15 17 20 22 24 28 31 31 32 33 30
11 11 10 8 7 5 4 4 4 2 1 0 1 3 4 3 3 4 4 4 5 5 5 6 6 6 7 7 8 10 12 14 16 16 19 20 22 24 27 29 31 29 29
12 13 10 8 6 5 3 3 3 2 1 1 2 2 3 3 4 5 6 6 7 7 7 8 9 9 8 8 8 9 11 13 15 15 17 19 21 22 25 28 28 27 27
11 12 11 8 7 5 5 4 2 2 3 4 5 6 7 7 8 9 9 10 9 8 7 8 9 11 11 12 12 11 11 12 12 13 15 19 22 23 24 27 28 28 26
9 9 8 7 6 5 4 3 3 3 4 4 5 5 7 8 9 9 10 11 12 12 11 11 11 10 11 13 14 14 15 15 14 14 15 17 19 21 24 26 27 28 28
8 7 6 5 4 4 3 3 4 4 5 6 6 7 7 8 9 10 10 11 11 11 12 13 13 12 13 13 13 14 15 15 17 16 15 16 18 20 22 25 27 27 27

GFSGL_925_spd_345.txt.gz
Wind_Speed
18 16 14 13 11 11 10 9 9 8 7 7 6 5 4 3 2 2 3 4 5 7 10 12 14 15 17 19 13 17 25 22 23 16 20 24 27 26 24 22 19 19 16
18 15 15 12 12 12 11 11 10 9 8 7 7 5 5 3 3 2 3 3 6 8 9 13 12 17 21 19 15 21 23 28 33 30 22 24 25 24 23 22 19 18 19
17 16 14 14 14 13 12 11 11 10 9 8 7 6 5 4 5 4 3 5 6 8 10 12 17 20 20 20 21 21 25 31 26 27 22 23 24 24 23 22 21 19 18
18 17 17 16 15 13 12 12 12 10 9 8 7 7 7 6 6 6 5 5 6 6 12 10 16 16 18 20 22 23 29 30 28 25 23 22 23 23 24 27 23 19 17
19 18 18 19 16 14 13 13 12 11 10 9 8 9 9 8 8 8 8 6 5 7 9 10 13 15 15 19 25 24 29 30 32 26 21 17 21 26 27 23 24 21 17
20 20 18 17 17 16 15 14 13 12 11 11 10 10 10 11 11 12 10 9 9 8 10 12 13 13 16 18 23 26 33 42 29 24 20 23 27 27 27 30 29 21 7
20 20 19 18 18 17 16 14 14 13 12 11 10 10 10 10 12 12 12 11 11 10 12 14 16 16 16 17 17 24 30 33 38 39 37 33 28 39 35 32 29 22 10
18 19 20 21 21 19 18 16 14 14 13 12 11 10 8 11 13 13 13 14 13 12 13 15 17 19 19 20 20 24 25 28 30 32 28 28 28 33 34 30 29 20 9
18 19 21 22 21 22 20 18 14 14 13 12 11 10 9 8 12 13 13 15 15 15 14 15 17 20 21 21 23 25 26 28 28 26 20 19 24 24 33 30 28 24 8
20 20 21 22 22 22 20 18 17 14 13 13 13 11 9 9 11 14 14 12 18 17 15 15 16 20 21 23 25 26 27 28 29 27 22 17 16 22 24 34 30 30 14
17 18 19 20 19 19 18 18 16 15 14 13 12 10 10 10 12 13 14 14 15 19 19 18 18 19 21 24 25 26 29 27 26 25 22 18 18 21 26 33 32 31 30
18 19 18 18 18 18 17 16 15 14 13 11 10 9 9 9 10 10 14 14 15 18 22 22 20 19 22 24 27 27 27 25 22 24 22 23 25 26 28 30 32 30 27
21 20 19 18 17 16 17 16 14 13 12 12 11 10 8 8 9 10 13 12 13 15 18 20 20 18 20 23 25 28 28 25 23 27 29 30 30 27 26 27 29 28 28
23 20 18 17 15 14 13 12 12 12 11 10 7 5 5 6 7 7 9 10 12 12 13 13 16 16 18 21 24 28 27 27 27 29 31 30 28 25 26 27 30 30 28
23 21 19 18 17 15 13 10 10 9 9 7 4 3 3 3 4 3 5 6 8 9 10 12 12 15 17 20 22 24 27 26 27 28 29 29 27 27 28 28 28 30 26
23 21 20 19 16 14 13 11 8 7 8 6 6 3 2 2 3 3 4 3 4 6 8 9 11 15 18 21 23 25 26 28 30 29 29 29 29 29 29 28 29 28 27
23 24 22 20 18 16 14 13 13 11 9 5 5 7 5 3 3 3 3 3 2 4 6 4 4 8 11 13 15 18 22 27 28 27 28 29 28 27 27 28 29 28 26
23 22 20 18 17 15 14 11 10 10 10 7 5 4 4 5 4 4 2 2 1 2 2 2 2 2 2 4 7 11 16 18 18 21 23 25 25 26 26 28 30 28 27
22 19 18 17 15 14 13 11 9 8 6 5 4 3 5 6 5 3 2 1 2 2 3 2 2 3 4 4 4 6 8 11 12 15 18 21 24 25 27 27 28 30 27
18 18 17 17 16 13 12 11 8 7 5 4 3 2 2 2 6 7 3 2 1 2 3 3 3 3 4 4 4 4 6 8 10 11 13 16 19 22 26 26 27 25 29
18 17 16 16 14 12 12 11 8 6 5 4 2 2 5 4 2 2 5 5 4 3 3 4 4 4 5 6 6 6 6 7 9 10 12 14 16 20 22 25 28 29 28
18 16 14 13 13 12 11 9 8 6 5 3 2 2 4 3 2 2 3 3 4 5 4 5 5 5 5 6 7 7 8 8 8 9 11 13 16 18 20 22 24 26 27
18 17 16 14 13 13 11 10 9 7 5 3 1 1 1 1 1 2 3 2 4 6 5 6 8 9 8 8 8 8 8 9 9 8 10 12 14 16 18 20 22 24 24
17 17 16 14 13 12 10 9 7 5 4 3 1 1 3 5 5 5 5 7 8 8 9 7 7 9 10 10 11 11 11 10 10 10 10 11 14 15 16 18 20 22 23
16 15 14 13 13 12 11 9 7 5 4 3 2 2 3 4 5 6 6 7 8 9 10 11 11 11 12 11 11 13 14 14 13 12 13 13 14 15 16 17 19 20 21
15 14 12 11 11 10 8 7 5 3 3 2 2 3 4 4 6 7 8 9 10 11 10 9 10 11 13 12 13 15 15 16 16 17 15 13 15 16 16 17 18 20 21